New Paris, IN

2:39 AM EST on February 23, 2017 (GMT -0500)
Goshen Municipal

Weather History for KGSH - February, 2015

Change the Weather History Date:

Saturday, February 28, 2015

  Actual Average Record
Temperature  
Mean Temperature 6 °F -  
Max Temperature 21 °F 40 °F 63 °F (1976)
Min Temperature -9 °F 23 °F -9 °F (2015)
Degree Days  
Heating Degree Days 59    
Moisture  
Dew Point 0 °F    
Average Humidity 68    
Maximum Humidity 91    
Minimum Humidity 46    
Precipitation  
Precipitation 0.02 in - - ()
Sea Level Pressure  
Sea Level Pressure 30.66 in    
Wind  
Wind Speed 3 mph (SE)    
Max Wind Speed 10 mph    
Max Gust Speed -    
Visibility 6 miles    
Events Snow    
Averages and records for this station are not official NWS values.
T = Trace of Precipitation, MM = Missing Value Source: NWS Daily Summary

Daily Weather History Graph

Daily Weather History Graph

Search for Another Location

Airport or City:

Trip Planner

Search our weather history database for the weather conditions in past years. The results will help you decide how hot, cold, wet, or windy it might be!

Date:

Astronomy

Feb. 28, 2015 Rise Set
Actual Time 7:19 AM EST 6:32 PM EST
Civil Twilight 6:51 AM EST 7:00 PM EST
Nautical Twilight 6:19 AM EST 7:32 PM EST
Astronomical Twilight 5:47 AM EST 8:04 PM EST
Moon 2:11 PM EST (2/28) 4:01 AM EST (2/28)
Length of Visible Light 12h 08m
Length of Day
11h 12m
Waxing Gibbous, 78% of the Moon is Illuminated
Feb 28
Waxing Gibbous
Mar 5
Full
Mar 13
Last Quarter
Mar 20
New
Mar 27
First Quarter

Hourly Weather History & Observations

Time (EST) Temp. Windchill Dew Point Humidity Pressure Visibility Wind Dir Wind Speed Gust Speed Precip Events Conditions
12:53 AM -2.0 °F -10.1 °F -9.0 °F 72% 30.72 in 9.0 mi South 3.5 mph - N/A   Clear
1:53 AM -4.0 °F -12.4 °F -11.0 °F 72% 30.74 in 8.0 mi SSW 3.5 mph - N/A   Clear
2:53 AM -6.0 °F - -13.0 °F 72% 30.74 in 5.0 mi Calm Calm - N/A   Haze
3:27 AM -6.0 °F - -11.9 °F 75% 30.67 in 2.0 mi Calm Calm - N/A   Haze
3:53 AM -9.0 °F - -16.1 °F 71% 30.73 in 2.5 mi Calm Calm - N/A   Haze
4:13 AM -7.1 °F - -15.0 °F 68% 30.67 in 4.0 mi Calm Calm - N/A   Haze
4:53 AM -8.0 °F - -15.0 °F 71% 30.73 in 3.0 mi Calm Calm - N/A   Haze
5:53 AM -9.9 °F - -17.0 °F 71% 30.76 in 7.0 mi Calm Calm - N/A   Clear
6:53 AM -9.0 °F - -16.1 °F 71% 30.76 in 7.0 mi Calm Calm - N/A   Clear
7:53 AM -7.1 °F - -11.9 °F 79% 30.78 in 6.0 mi Calm Calm - N/A   Haze
8:53 AM -4.0 °F - -6.0 °F 91% 30.80 in 6.0 mi Calm Calm - N/A   Partly Cloudy
9:53 AM 1.0 °F - -2.0 °F 87% 30.80 in 6.0 mi Calm Calm - N/A   Clear
10:53 AM 14.0 °F - 1.9 °F 59% 30.78 in 10.0 mi Calm Calm - N/A   Clear
11:53 AM 17.1 °F - 1.9 °F 52% 30.78 in 10.0 mi Calm Calm - N/A   Clear
12:53 PM 18.0 °F 9.8 °F 3.0 °F 52% 30.76 in 10.0 mi South 5.8 mph - N/A   Overcast
1:53 PM 21.9 °F 14.5 °F 3.9 °F 46% 30.71 in 10.0 mi SE 5.8 mph - N/A   Mostly Cloudy
2:53 PM 21.9 °F 11.7 °F 5.0 °F 48% 30.69 in 10.0 mi ESE 9.2 mph - N/A   Clear
3:53 PM 21.0 °F 11.4 °F 3.9 °F 48% 30.66 in 10.0 mi ESE 8.1 mph - N/A   Clear
4:53 PM 19.9 °F 10.1 °F 3.0 °F 48% 30.64 in 10.0 mi ESE 8.1 mph - N/A   Clear
5:53 PM 19.9 °F 12.1 °F 3.9 °F 50% 30.63 in 10.0 mi SE 5.8 mph - N/A   Clear
6:53 PM 19.0 °F 7.5 °F 6.1 °F 57% 30.61 in 10.0 mi East 10.4 mph - N/A   Partly Cloudy
7:53 PM 18.0 °F 8.7 °F 6.1 °F 60% 30.61 in 10.0 mi SE 6.9 mph - N/A   Overcast
8:53 PM 18.0 °F 6.9 °F 6.1 °F 60% 30.61 in 10.0 mi SE 9.2 mph - N/A   Overcast
9:10 PM 17.1 °F 5.8 °F 7.0 °F 65% 30.54 in 2.5 mi SE 9.2 mph - 0.00 in Snow Light Snow
9:21 PM 17.1 °F 6.6 °F 8.1 °F 68% 30.54 in 1.5 mi SSE 8.1 mph - 0.00 in Snow Light Snow
9:48 PM 15.8 °F 6.1 °F 10.4 °F 79% 30.54 in 1.8 mi SE 6.9 mph - 0.00 in Snow Light Snow
9:53 PM 16.0 °F 5.3 °F 10.0 °F 77% 30.59 in 1.5 mi SSE 8.1 mph - 0.00 in Snow Light Snow
10:45 PM 16.0 °F 6.3 °F 10.9 °F 81% 30.52 in 1.8 mi SE 6.9 mph - 0.01 in Snow Light Snow
10:53 PM 16.0 °F 6.3 °F 10.9 °F 81% 30.56 in 2.0 mi SE 6.9 mph - 0.01 in Snow Light Snow
11:09 PM 16.0 °F 5.3 °F 10.9 °F 81% 30.50 in 1.5 mi SE 8.1 mph - 0.01 in Snow Light Snow
11:34 PM 16.0 °F 6.3 °F 10.9 °F 81% 30.49 in 2.0 mi ESE 6.9 mph - 0.01 in Snow Light Snow
11:48 PM 15.8 °F 7.2 °F 10.4 °F 79% 30.48 in 1.5 mi ESE 5.8 mph - 0.01 in Snow Light Snow
11:53 PM 16.0 °F 7.4 °F 10.9 °F 81% 30.53 in 1.5 mi SE 5.8 mph - 0.01 in Snow Light Snow